User: anonymous   Login
Location: Unspecified
(0.0000°N, 0.0000°E)
Time: 00:21:54
(UTC+00:00)
Language:

Vela 3B - Orbit

View from above orbital plane
View from above orbital plane
View from above satellite
View from above satellite

Ground track
Ground track

The orbit data is extracted from the following two-line orbital elements,

1 01459U 65058B   15151.22821069 -.00000462  00000-0  00000+0 0  9998
2 01459 003.8682 058.5465 4537776 285.5889 359.9417 00.21148313 39402
Epoch (UTC): 31 May 2015 05:28:37
Eccentricity: 0.4537776
inclination: 3.8682°
perigee height: 58622 km
apogee height: 166621 km
right ascension of ascending node: 58.5465°
argument of perigee: 285.5889°
revolutions per day: 0.21148313
mean anomaly at epoch: 359.9417°
orbit number at epoch: 3940

The dashed part of the orbit path shows where the satellite is in the earth's shadow,  

DLR